Moses Lake, WA
on Thursday, November 8, 2012

Thursday
Previous Day Next Day
Daily Summary
 ActualAverageRecord
Temperature
Mean Temperature °F 40°F  
Max Temperature 50°F 50°F 63°F (1980)
Min Temperature 31°F 31°F 23°F (2005)
Degree Days
Heating Degree Days 24 25  
Month to date heating degree days 133 186  
Since 1 July heating degree days 658 823  
Cooling Degree Days 0 0  
Month to date cooling degree days 0 0  
Year to date cooling degree days 719 615  
Moisture
Dew Point 28°F   
Average Humidity 62    
Maximum Humidity 85    
Minimum Humidity 39    
Precipitation
Precipitation 0.01 in 0.04 in 0.45 in (2000)
Month to date precipitation 0.09 0.30  
Year to date precipitation 6.69 6.77  
Wind
Wind Speed 9 mph   
Max Wind Speed 21 mph   
Max Gust Speed 30 mph   
Visibility 10 miles   
Events Rain   

Key: T is trace of precipitation, MM is missing value
Source: NWS Daily Summary
Time(PST)TemperatureDew PointHumidity Pressure Visibility Wind DirectionWind SpeedGust SpeedPrecipitationEvents Conditions
12:52 AM 32.0°F 26.1°F 79% 29.95 in 10.0 miles North 8.1 mph - N/A   Clear
1:52 AM 30.9°F 25.0°F 79% 29.94 in 10.0 miles North 5.8 mph - N/A   Mostly Cloudy
2:52 AM 33.1°F 27.0°F 78% 29.92 in 10.0 miles North 6.9 mph - N/A   Overcast
3:52 AM 33.1°F 27.0°F 78% 29.91 in 10.0 miles North 8.1 mph - N/A   Mostly Cloudy
4:52 AM 32.0°F 26.1°F 79% 29.90 in 10.0 miles North 8.1 mph - N/A   Clear
5:52 AM 32.0°F 26.1°F 79% 29.88 in 10.0 miles North 9.2 mph - N/A   Clear
6:52 AM 32.0°F 26.1°F 79% 29.87 in 10.0 miles North 9.2 mph - N/A   Clear
7:52 AM 32.0°F 26.1°F 79% 29.86 in 10.0 miles North 8.1 mph - N/A   Clear
8:52 AM 35.6°F 26.6°F 70% 29.81 in 10.0 miles North 6.9 mph - N/A   Partly Cloudy
9:52 AM 44.1°F 26.1°F 49% 29.81 in 10.0 miles North 11.5 mph - N/A   Clear
10:52 AM 48.0°F 27.0°F 44% 29.80 in 10.0 miles North 12.7 mph 19.6 mph N/A   Clear
11:52 AM 48.9°F 27.0°F 43% 29.77 in 10.0 miles North 16.1 mph 21.9 mph N/A   Mostly Cloudy
12:52 PM 48.0°F 26.1°F 42% 29.76 in 10.0 miles North 17.3 mph - N/A   Overcast
1:52 PM 50.0°F 26.1°F 39% 29.75 in 10.0 miles North 12.7 mph - N/A   Mostly Cloudy
2:52 PM 48.0°F 27.0°F 44% 29.74 in 10.0 miles North 10.4 mph - N/A   Overcast
3:52 PM 46.0°F 28.9°F 51% 29.75 in 10.0 miles NE 10.4 mph - 0.00 in   Overcast
4:52 PM 44.1°F 30.9°F 60% 29.75 in 10.0 miles NNE 5.8 mph - 0.00 in Rain Light Rain
5:52 PM 43.0°F 32.0°F 65% 29.76 in 10.0 miles NNE 8.1 mph - 0.00 in   Overcast
6:52 PM 43.0°F 30.9°F 62% 29.77 in 10.0 miles North 6.9 mph - N/A   Overcast
7:52 PM 42.1°F 30.9°F 65% 29.78 in 10.0 miles North 9.2 mph - N/A   Overcast
8:52 PM 39.9°F 33.1°F 77% 29.78 in 10.0 miles NNE 11.5 mph - 0.01 in   Overcast
9:52 PM 37.9°F 33.1°F 83% 29.79 in 10.0 miles ENE 3.5 mph - N/A   Overcast
10:52 PM 37.0°F 32.0°F 82% 29.78 in 10.0 miles ESE 3.5 mph - N/A   Mostly Cloudy
11:52 PM 37.0°F 33.1°F 86% 29.79 in 10.0 miles WSW 3.5 mph - N/A   Overcast
Moon Phase
Nov. 08 Nov. 13 Nov. 20 Nov. 28 Dec. 06
Sunrise:06:51 AM (PST) Moon Rise:12:29 AM (PST)11/8
Sunset:04:29 PM (PST) Moon Set:01:33 PM (PST)11/8

Copyright © 2014 The Weather Underground, Inc.